This is the latest recevied weather packets stored in our database for station/object KC5DAQ-25. If no packets are shown the sender has not sent any weather packets the latest 10 day(s).
| Time | Temp. | Humidity | Pressure | Rain* | Wind** | Luminosity | Snow |
|---|---|---|---|---|---|---|---|
| 1778158166 | 16.67° C | 85% | 1007.9 hPa | 0 mm | - | 14 W/m² | - |
| 1778158104 | 16.67° C | 85% | 1007.8 hPa | 0 mm | - | 14 W/m² | - |
| 1778158046 | 16.67° C | 85% | 1007.9 hPa | 0 mm | - | 14 W/m² | - |
| 1778157986 | 16.67° C | 85% | 1007.9 hPa | 0 mm | - | 14 W/m² | - |
| 1778157925 | 16.67° C | 85% | 1008 hPa | 0 mm | - | 14 W/m² | - |
| 1778157865 | 16.67° C | 85% | 1007.9 hPa | 0 mm | - | 14 W/m² | - |
| 1778157806 | 16.67° C | 85% | 1008.1 hPa | 0 mm | - | 11 W/m² | - |
| 1778157744 | 16.67° C | 85% | 1008.1 hPa | 0 mm | - | 11 W/m² | - |
| 1778157691 | 16.67° C | 85% | 1008 hPa | 0 mm | - | 16 W/m² | - |
| 1778157626 | 16.67° C | 85% | 1008.1 hPa | 0 mm | - | 16 W/m² | - |
| 1778157564 | 16.67° C | 85% | 1008.1 hPa | 0 mm | - | 16 W/m² | - |
| 1778157505 | 16.67° C | 85% | 1007.9 hPa | 0 mm | - | 16 W/m² | - |
| 1778157445 | 16.67° C | 85% | 1007.9 hPa | 0 mm | - | 16 W/m² | - |
| 1778157387 | 16.67° C | 85% | 1007.8 hPa | 0 mm | - | 18 W/m² | - |
| 1778157324 | 16.67° C | 85% | 1007.8 hPa | 0 mm | - | 21 W/m² | - |
| 1778157266 | 16.67° C | 85% | 1007.8 hPa | 0 mm | - | 16 W/m² | - |
| 1778157205 | 16.67° C | 85% | 1007.9 hPa | 0 mm | - | 16 W/m² | - |
| 1778157144 | 16.67° C | 85% | 1007.9 hPa | 0 mm | - | 16 W/m² | - |
| 1778157084 | 16.67° C | 85% | 1008 hPa | 0 mm | - | 16 W/m² | - |
| 1778157025 | 16.67° C | 85% | 1008 hPa | 0 mm | - | 14 W/m² | - |
| 1778156964 | 16.67° C | 85% | 1007.9 hPa | 0 mm | - | 14 W/m² | - |
| 1778156904 | 16.67° C | 85% | 1007.9 hPa | 0 mm | - | 14 W/m² | - |
| 1778156846 | 16.67° C | 85% | 1007.8 hPa | 0 mm | - | 14 W/m² | - |
| 1778156784 | 17.22° C | 85% | 1007.7 hPa | 0 mm | - | 9 W/m² | - |
| 1778156736 | 17.22° C | 85% | 1007.7 hPa | 0 mm | - | 9 W/m² | - |
* Rain latest hour (hover to see other rain measurements)
** Current wind speed in m/s (hover to see current wind gust speed)